Regional Weather Roundup
Issued by NWS Wakefield, VA

Home | Current Version | Previous Version | Text Only | Print | Product List | Glossary Off
Versions: 1 2 3 4 5 6 7 8 9 10 11 12 13 14 15 16 17 18 19 20 21 22 23 24 25 26 27 28 29 30 31 32 33 34 35 36 37 38 39 40 41 42 43 44 45 46 47 48 49

000
ASUS41 KAKQ 092014
RWRAKQ

REGIONAL WEATHER ROUNDUP
NATIONAL WEATHER SERVICE WAKEFIELD VA
300 PM EST TUE FEB 09 2016

Note: "fair" indicates few or no clouds below 12,000 feet with no
significant weather and/or obstructions to visibility. * = Denotes
station may not report precipitation (e.g., rain,snow,etc.),
thunder or fog.

VAZ042-051-052>054-056-092100-
NORTHERN VIRGINIA

CITY           SKY/WX    TMP DP  RH WIND       PRES   REMARKS
WASH NATIONAL  PTSUNNY   39  31  72 NW15      29.57R
DULLES         PTSUNNY   37  29  72 NW10      29.56R
FORT BELVOIR   DRIZZLE   39  32  75 W12       29.56R
QUANTICO       FLURRIES  37  34  89 NW7       29.59R
FREDERICKSBRG* LGT RAIN  38  37  93 N7        29.56S
STAFFORD*      FLURRIES  36  35  94 NW9       29.61S
WARRENTON      LGT RAIN  34  34 100 N3        29.56S
CULPEPER*      CLOUDY    35  34  96 CALM      29.57S
MANASSAS*      FLURRIES  37  36  93 NW6       29.57
LEESBURG*      PTSUNNY   37  32  81 NW9       29.56S
WINCHESTER     CLOUDY    36  27  69 W14G21    29.55S
FRONT ROYAL*   FAIR      36  23  60 NW5       29.53F
LURAY*         CLOUDY    37  23  56 SW6       29.53S
$$

VAZ048-049-060>072-079>083-092100-
CENTRAL AND SOUTH CENTRAL VIRGINIA

CITY           SKY/WX    TMP DP  RH WIND       PRES   REMARKS
RICHMOND       PTSUNNY   43  34  70 NW8       29.56R
CHESTERFIELD*  MOCLDY    43  25  49 W12G18    29.57F
PETERSBURG*    PTSUNNY   45  23  42 W10       29.57R
HANOVER        PTSUNNY   39  34  82 W3        29.57R
TAPPAHANNOCK*  PTSUNNY   44  33  65 W8        29.55S
QUINTON*       CLOUDY    40  32  72 W7G21     29.56R
CHARLOTTSVILLE PTSUNNY   42  20  41 VRB3      29.53S
GORDONSVILLE*  CLOUDY    42  27  54 MISG      29.53F
ORANGE*        CLOUDY    43  28  56 W7        29.56R
LOUISA*        PTSUNNY   43  27  52 W8        29.52S
BUMPASS*       FAIR      43  31  61 SW7       29.54S
FARMVILLE*     PTSUNNY   45  18  35 SW13G22   29.55S
CREWE*         CLOUDY    42  22  44 W6G17     29.56S
FORT PICKETT*  CLOUDY    42  23  46 W13       29.56S
CHASE CITY*    CLOUDY    40  17  38 W6        29.60R
CLARKSVILLE*   CLOUDY    39  21  48 W12G17    29.61R
SOUTH HILL*    CLOUDY    42  24  48 SW13      29.64R
LAWRENCEVILLE* CLOUDY    43  27  52 W7        29.57R
EMPORIA*       CLOUDY    43  27  52 SW9       29.59S
$$

VAZ088>098-092100-
SOUTHEAST VIRGINIA

CITY           SKY/WX    TMP DP  RH WIND       PRES   REMARKS
NORFOLK        CLOUDY    47  25  42 SW14G22   29.54F
VIRGINIA BEACH PTSUNNY   50  27  40 W13       29.55R
NORFOLK NAVAL  PTSUNNY   47  27  45 W14G21    29.56S
WEST POINT*    CLOUDY    44  32  64 W3        29.56S
SALUDA*        CLOUDY    44  34  67 NW3       29.54S
NEWPORT NEWS   CLOUDY    46  30  53 W12       29.55R
LANGLEY AFB    PTSUNNY   46  31  55 SW13      29.54R
FORT EUSTIS    PTSUNNY   45  28  53 W9        29.53S
WILLIAMSBURG*  FAIR      48  32  53 W10       29.55F
HR EXEC AP*    CLOUDY    46  28  49 W12G17    29.57S
FRANKLIN*      PTSUNNY   46  26  45 W12G18    29.57S
US460-WAKEFLD  PTSUNNY   47  29  49 SW8       29.56S
$$

VAZ020-022-025-037-045-092100-
WEST CENTRAL AND SOUTHWEST VIRGINIA

CITY           SKY/WX    TMP DP  RH WIND       PRES   REMARKS
STAUNTON*      CLOUDY    42  20  42 W14G20    29.54S
WAYNESBORO*    CLOUDY    36  15  43 SW10G17   29.53R
HOT SPRINGS VA CLOUDY    20  13  73 W22G28    29.44R HAZE    WCI   4
LYNCHBURG      FAIR      37  16  42 W12G22    29.60R
DANVILLE       CLOUDY    39  17  41 NW12G21   29.63R
SOUTH BOSTON*  CLOUDY    39  17  39 W12       29.62R
MARTINSVILLE   CLOUDY    31  15  51 NW13G18   29.67R WCI  22
ROANOKE        CLOUDY    32  14  47 NW15G24   29.64R WCI  22
BLACKSBURG     CLOUDY    26  18  72 NW13G20   29.63R WCI  15
DUBLIN*        CLOUDY    26  17  68 NW15G21   29.63R WCI  14
MARION*        LGT SNOW  22  17  81 W10       29.65R WCI  11
HILLSVILLE*    CLOUDY    22  13  65 NW17G26   29.57R WCI   8
RICHLANDS*     FLURRIES  19  11  70 NW9G16    29.63S
WISE*          FLURRIES  21  10  63 W8        29.67R
ABINGDON*      CLOUDY    25  12  57 W9G16     29.69R
$$

MDZ021>025-VAZ099-100-092100-
SOUTHERN MARYLAND AND THE DELMARVA PENINSULA

CITY           SKY/WX    TMP DP  RH WIND       PRES   REMARKS
PATUXENT RIVER PTSUNNY   39  35  86 NW9       29.55R
BAY BRIDGE APT DRIZZLE   36  36 100 CALM      29.55S
LEONARDTOWN    CLOUDY    39  34  81 W7        29.56S
DOVER          LGT RAIN  39  39 100 E9        29.52S
GEORGETOWN     LGT RAIN  38  35  89 E7        29.54S FOG
EASTON         CLOUDY    39  39 100 W3        29.57R
CAMBRIDGE      PTSUNNY   41  36  81 W5        29.52S
SALISBURY      LGT RAIN  40  37  89 NW9       29.53R
OCEAN CITY     CLOUDY    42  38  85 E8        29.53F
WALLOPS ISLAND CLOUDY    43  38  82 S9        29.54S
ACCOMACK*      CLOUDY    45  32  61 W10G16    29.54S
$$

NCZ012>017-030>032-092100-
NORTH CENTRAL AND EASTERN NORTH CAROLINA

CITY           SKY/WX    TMP DP  RH WIND       PRES   REMARKS
ROANOKE RAPIDS DRIZZLE   41  32  70 W10G24    29.60R
RALEIGH        CLOUDY    41  20  43 W9        29.63R
ELIZABETH CITY CLOUDY    46  28  49 SW14      29.58R
AHOSKIE*       PTSUNNY   44  28  51 CALM      29.59S
EDENTON*       PTSUNNY   48  32  53 W12       29.60R
CURRITUCK*     PTSUNNY   46  30  53 SW14G20   29.58R
KILL DEVIL HLS PTSUNNY   47  32  55 W8G16     29.58R
MANTEO         MOSUNNY   47  30  51 W14G21    29.59R
CAPE HATTERAS  PTSUNNY   47  34  60 W10G16    29.62S
TARBORO*       LGT RAIN  42  34  72 SW8       29.63R
GOLDSBORO      PTSUNNY   46  27  46 W25       29.62R
WASHINGTON     CLOUDY    45  33  63 NW8       29.61R
GREENVILLE     LGT RAIN  39  36  87 W7        29.66R
NEW BERN       PTSUNNY   46  27  47 W15G23    29.65R
WILMINGTON     MOSUNNY   48  25  40 W18       29.68R
$$

VAZ048-092100-
ELSEWHERE

CITY           SKY/WX    TMP DP  RH WIND       PRES   REMARKS
HARRISBURG PA  LGT SNOW  32  30  92 CALM      29.54S VSB 3/4
BALTIMORE      LGT RAIN  36  33  89 CALM      29.54R
ANNAPOLIS      CLOUDY    38  34  85 NW7       29.54S
ANDREWS AFB    CLOUDY    39  33  79 NW15      29.53S
PHILADELPHIA   LGT SNOW  36  31  82 NE8       29.56R
HENDERSON NC   MOSUNNY   40  18  40 SW7       29.61R
GREENSBORO     CLOUDY    36  15  42 W18       29.63R
ROCKY MOUNT    CLOUDY    43  33  68 SW9       29.62R
$$

VAZ100-092100-
MARINE

STATION/POSITION TIME  TEMP    WIND        PRES    WAVE   SWELL
                       AIR SEA DIR/SP/G            HT/PER HT/PER
                 (UTC) (F)     (DEG/KT/KT) (MB)    (FT/S) (FT/S)
BRANDYWINE LGT   1900   39      80/ 12/ 13  999.9S
CAPE MAY NJ      1900   40 42   70/  7/ 11  999.7F
LEWES DE         1900   40 41  100/ 12/ 15  999.8S
15NM E FENWICK I 1950   41 43              1000.1R   8/14
OCEAN-CITY-INLET 1900   41 41  110/  4/  5  999.4S
WACHAPREAGUE VA  1900   45 44  250/  5/ 10 1000.1F
THOMAS POINT MD  2000   37 39  300/ 14/ 16 1000.9
GOOSES REEF MD   2000   39 40  320/ 12/ 16 1001.5R   1/ 2
COVE POINT MD    1900   36     330/ 10/ 20 1001.0R
SOLOMONS ISLAND  1900   37 41  320/  9/ 12   N/A
BISHOPS HEAD MD  1900   39 41  230/  5/  8  999.1F
PINEY POINT MD   1900          340/ 15/ 16   N/A
POTOMAC MD       2000   39 41  330/ 14/ 16  999.8R   1/ 2
CAMBRIDGE MD     1900   38 40  280/  5/  8  999.1F
LEWISETTA VA     1900   39 42  320/ 14/ 18 1000.4R
RAPPAHANNOCK LGT 1900          220/ 10/ 14 1000.5F
STINGRAY PT      2000   42 42  310/  8/ 10 1000.3R
YORK RVR RNG VA  1900   45     260/ 14/ 15  999.4F
YORKTOWN VA      1900   45 43  280/ 16/ 19  999.8F
JAMESTOWN VA     2000   45 44  250/ 12/ 17   N/A
DOMINION TERM VA 1900   45     260/ 13/ 15 1000.4F
KIPTOPEKE VA     1900      43  230/  3/  5   N/A
CHES BAY BRIDGE  1900   44 44  250/ 10/ 13 1000.3F
CAPE HENRY VA    1900   46     260/ 10/ 15   N/A
CHESAPEAKE LGHT  1900   45     310/  6/  6 1001.5F
WILLOUBY STN VA  1900   45     260/ 14/ 15   N/A
CAPE HENRY BUOY  1928      45                N/A     5/13   3/13
1ST LANDING BUOY 2000      45                N/A     4/ 9
CAPE CHARLES BUO 1926      45                N/A     6/14   5/14
OFFSHORE WE BUOY 1921      46                N/A     6/14   7/14
64NM E OF VA BCH 1950   44 51  280/ 12/ 17 1000.9S  10/15  10/15
DUCK PIER NC     1900   46     240/ 18/ 22 1000.9F
44100 DUCK FRF   1924      47                N/A     8/15   7/15
44056 DUCK FRF   1911      45                N/A     8/14   7/14
OREGON INLET NC  1900   47 45  270/ 12/ 15 1001.4F
HATTERAS NC      1900   46 52  260/ 14/ 18 1002.3F
DIAMOND SHLS NC  1950   48 74  290/ 16/ 19 1003.0R  12/14  11/14
C1F1C2F2C3F3C4F4C5F5C6F6C7F7C8M1C9!


USA.gov is the U.S. government's official web portal to all federal, state and local government web resources and services.